Location: T�bingen+AIT
(48.5342°N, 9.0700°E)
Time: 15:07:33
(UTC+01:00)

Cosmos 2228 - Pass Details

Date: 14 September 2017
Orbit: 590 x 619 km, 82.5° (Epoch: 17 November)

Event Time Altitude Azimuth Distance (km) Brightness Sun altitude
Exits shadow 20:44:43 - 149° (SSE) 2,084 5.3 -11.6°
Reaches altitude 10° 20:45:01 10° 147° (SSE) 1,978 5.2 -11.6°
Maximum altitude 20:48:44 28° 89° (E) 1,170 3.9 -12.2°
Drops below altitude 10° 20:52:28 10° 31° (NNE) 1,982 5.5 -12.8°
Sets 20:54:55 0° 20° (NNE) 2,888 6.5 -13.2°
